www.pogodaiklimat.ru
ПОГОДА в Мичеме
Время
и дата
05:56 14.06
06:56 14.06
07:56 14.06
08:56 14.06
10:56 14.06
11:56 14.06
12:56 14.06
13:56 14.06
14:56 14.06
15:56 14.06
16:56 14.06
17:56 14.06
18:56 14.06
19:56 14.06
20:56 14.06
21:56 14.06
22:56 14.06
23:56 14.06
00:56 15.06
02:56 15.06
04:05 15.06
04:56 15.06
05:56 15.06
07:56 15.06
09:56 15.06
12:56 15.06
16:11 15.06
22:56 15.06
02:09 16.06
02:56 16.06
03:28 16.06
03:56 16.06
07:56 16.06
08:56 16.06
10:07 16.06
12:16 16.06
14:56 16.06
05:56 17.06
07:56 17.06
08:56 17.06
10:56 17.06
11:03 17.06
11:15 17.06
11:22 17.06
11:29 17.06
11:40 17.06
11:55 17.06
12:14 17.06
Ветер
(напр.,м/с)
Видим. Явления Облачность Т
(С)
Тd
(С)
f
(%)
Тe
(С)
Тes
(С)
Комфортность P
(гПа)
Po
(гПа)
Тmin
(С)
Tmax
(С)
R
(мм)
R24
(мм)
S
(см)
штиль 0 16 км ясно +10.0 +3.3 63 +10 +10 1018.0 889.5
16 км ясно +12.2 +1.7 49 +12 +15 1019.0 890.1
нст 3
{9}
16 км ясно +11.7 -1.1 41 +10 +14 1020.2 890.7
16 км ясно +14.4 0.0 37 +14 +26 опасность
простуды
1020.1 890.7
нст 3 16 км ясно +15.0 -1.7 32 +15 +28 опасность
простуды
1019.2 890.1
З 3 16 км ясно +16.7 -0.6 31 +17 +32 опасность
простуды
1018.9 889.8
нст 2 16 км ясно +15.6 -0.6 33 +16 +35 опасность
простуды
1018.8 889.8
нст 2 16 км ясно +16.1 -0.6 32 +16 +34 опасность
простуды
1018.4 889.2
штиль 0 16 км ясно +15.0 -0.6 34 +15 +36 опасность
простуды
1018.4 888.9
нст 2 16 км ясно +16.1 0.0 33 +16 +28 опасность
простуды
1017.8 888.4 +14.4 +17.2
нст 2 16 км ясно +15.6 0.0 34 +16 +23 1017.7 888.1
штиль 0 16 км ясно +14.4 +0.6 39 +14 +20 1016.5 887.5
штиль 0 16 км ясно +13.3 +1.7 45 +13 +15 1015.7 886.9
штиль 0 16 км ясно +10.6 +2.2 56 +10 +11 1015.6 886.6
штиль 0 16 км ясно +8.3 +2.8 68 +8 +8 1015.7 886.6
штиль 0 16 км ясно +6.7 +2.8 76 +6 +6 1015.8 886.6 +6.7 +16.1
штиль 0 16 км ясно +6.1 +2.2 76 +5 +5 1015.5 886.3
штиль 0 16 км ясно +5.0 +1.7 79 +4 +4 1015.4 886.3
штиль 0 16 км ясно +4.4 +1.7 83 +3 +3 1015.5 886.3
штиль 0 16 км 8/8 390 м +3.9 +1.1 82 +3 +3 1015.5 886.0
штиль 0 16 км 10/10 30 м +5.6 +2.8 82 +5 +5 886.0
штиль 0 16 км 10/10 30 м +7.2 +2.8 74 +7 +7 1015.0 886.0
штиль 0 16 км 10/10 30 м +6.7 +3.3 79 +6 +6 1015.4 886.3
штиль 0 16 км 5/5 30 м +8.3 +1.1 60 +8 +11 1016.6 886.9
нст 3 16 км слабый дождь 10/10 330 m
[Ns]
+10.0 0.0 50 +8 +8 1017.5 887.5 +5.6 +11.1
С 2 16 км 8/8 630 м +12.2 -0.6 41 +12 +15 1017.6 887.8 0.3
16 км 8/8 510 м +10.6 0.0 48 +10 +13 888.6
нст 2 16 км 10/10 30 м +5.0 +0.6 73 +3 +3 1020.5 889.8
штиль 0 16 км 5/5 30 м +0.6 -1.1 88 -1 -1 888.6
штиль 0 16 км 5/5 30 м 0.0 -1.7 88 -1 -1 1019.3 888.4
штиль 0 16 км 8/8 30 м 0.0 -1.7 88 -1 -1 888.4
штиль 0 16 км 10/10 30 м +0.6 -1.1 88 -1 -1 1019.0 888.1 -0.6 +5.0 0.3
штиль 0 16 км 10/10 30 м +7.2 0.0 60 +7 +7 1017.0 886.9
штиль 0 16 км 10/10 30 м +7.2 -1.1 56 +7 +7 1016.8 886.6
штиль 0 16 км 10/10 150 м +8.9 -1.1 49 +9 +9 886.0
штиль 0 16 км 10/8 360 m
[Ac]
+11.1 -0.6 44 +11 +12 885.1
штиль 0 16 км 2/2 90 м +10.6 +1.1 52 +10 +27 опасность
простуды
1014.1 883.9
штиль 0 16 км 10/10 30 м +3.9 +1.7 86 +3 +3 1013.1 883.6
З 2 16 км 8/8 30 м +5.0 +1.7 79 +2 +3 1013.8 883.9
нст 3
{8}
16 км 5/5 30 м +7.2 +1.7 68 +5 +8 1014.0 884.2
З 3 16 км слабый дождь 10/10 30 m
[Ns]
+8.9 +1.7 61 +7 +7 1014.6 884.8
штиль 0 10 км дождь 10/10 30 m
[Ns]
+7.2 +2.8 74 +7 +7 884.8
нст 2 16 км слабый дождь 10/10 30 m
[Ns]
+7.8 +3.9 76 +6 +6 884.8
нст 2 16 км слабый дождь 10/10 30 m
[Ns]
+7.2 +2.8 74 +5 +5 884.8
нст 2 16 км слабый дождь 10/10 30 m
[Ns]
+6.7 +2.2 73 +5 +5 884.8
16 км слабый дождь 10/10 30 m
[Ns]
+7.8 +2.8 71 +7 +7 885.1
штиль 0 8 км слабый дождь 10/10 30 m
[Ns]
+6.7 +3.3 79 +6 +6 1015.3 885.1
штиль 0 16 км слабый дождь 10/10 30 m
[Ns]
+7.8 +4.4 79 +7 +7 885.1
Местоположение метеостанции Meacham: широта 45.5114 долгота -118.4247 высота над уровнем моря 1135 м.
В архиве по умолчанию представлена погода в Мичеме за последние 1-2 суток. Обновление информации о фактической погоде в базе происходит ежечасно! Архивные данные за месяц целиком и за предыдущие месяцы Вы можете получить, выбрав интересующий диапазон дат из раскрывающегося списка и нажав кнопку "Ввод!".
Внимание! Архив погоды МЕТАР в базе сайта по станциям, не включенным в климатический монитор, хранится не более 60 дней. Нет смысла пытаться выбрать более раннюю дату.
*Определитесь, кто Вы:
Внимание! Время в таблицах - местное (без учета летнего времени). Для получения всемирного времени необходимо вычесть поправку, которая равна -8 ч.
Смотрите также архив погоды в соседних городах и на ближайших метеорологических станциях:
Партнеры нашего сайта:      
Пояснения к столбцам:
  • Ветер - указаны скорость ветра в м/с - средняя за 10 мин, порывы в срок и между сроками (в фигурных скобках) и направление, откуда дует ветер: С - северный,
  • СВ - северо-восточный, В - восточный, ЮВ - юго-восточный, Ю - южный, ЮЗ - юго-западный, З - западный, СЗ - северо-западный.
  • Видимость - горизонтальная дальность видимости в метрах или километрах. При видимости от 1 до 10 км при отсутствии осадков обычно наблюдается дымка, при ухудшении видимости до 1 км и менее - туман. В сухую погоду видимость может ухудшаться дымом, пылью или мглою.
  • Явления - указаны атмосферные явления, наблюдавшиеся в срок или в последний час перед сроком; фигурными скобками обозначены явления, наблюдавшиеся между сроками (за 1-3 часа до срока); квадратными скобками обозначены град или гололедные отложения с указанием их диаметра в мм.
  • Облачность - указаны через наклонную черту общая и нижняя облачность в баллах и высота нижней границы облаков в метрах; квадратными скобками обозначены формы облаков: Ci - перистые, Cs - перисто-слоистые, Cc - перисто-кучевые, Ac - высококучевые, As - высокослоистые, Sc - слоисто-кучевые, Ns - слоисто-дождевые, Cu - кучевые, Cb - кучево-дождевые. Подробнее классификацию облаков см. в Атласе облаков (PDF).
  • T - Температура воздуха - температура, измеренная на высоте 2 м над землей.
  • Td - Температура точки росы - температура, при понижении до которой содержащийся в воздухе водяной пар достигнет насыщения.
  • f - Относительная влажность воздуха - влажноcть воздуха, измеренная на высоте 2 м над землей.
  • Te - Эффективная температура - температура, которую ощущает одетый по сезону человек в тени. Характеристика душности погоды. При расчете учитывается влияние влажности воздуха и скорости ветра на теплоощущения человека.
  • Tes - Эффективная температура на солнце - температура, которую ощущает человек, с поправкой на солнечный нагрев. Характеристика знойности погоды. Зависит от высоты солнца над горизонтом, облачности и скорости ветра. Ночью, в пасмурную погоду, а также при ветре 12 м/с и более поправка равна нулю.
  • P - Атмосферное давление - приведенное к уровню моря атмосферное давление.
  • Po - Атмосферное давление - измеренное на уровне метеостанции атмосферное давление.
  • Tmin - Минимальная температура - минимум температуры воздуха на высоте 2 м над землей.
  • Tmax - Максимальная температура - максимум температуры воздуха на высоте 2 м над землей.
  • R - Количество осадков - Количество выпавших осадков за период времени, мм. При наведении курсора мыши на число - период времени, за который выпало указанное количество осадков.
  • R24 - Количество осадков - Количество выпавших осадков за 24 часа, мм.
  • S - Снежный покров - Высота снежного покрова, см. При наведении курсора мыши на число - состояние снежного покрова и степень покрытия местности в баллах.